Weather in Shtormovoe

Russia / Republic of Crimea     45°15′57″N   33°05′13″E
temp.,
°C
wind,
m/s
gust,
m/s
humid.,
%
clouds,
%
prec.,
mm/h
press.,
hPa
HPBL,
m
3 march, wed
wed300:00+6wsw10127969 0.0 1024697
03:00+7nw9108159 0.0 1024687
06:00+4n8117911 0.0 1024769
09:00+5n8106847 0.0 10261272
12:00+6nnw78660 0.0 1027839
15:00+7nnw78640 0.0 1028922
18:00+7nw67660 0.0 1027690
21:00+7nw566935 0.0 1029337
4 march, thu
thu400:00+6nw4571100 0.0 1028268
03:00+6wnw347267 0.0 1028375
06:00+6wsw44710 0.0 1026724
09:00+7sw66700 0.0 1025853
12:00+7sw78710 0.0 1024770
15:00+7sw810730 0.0 1022703
18:00+7ssw911750 0.0 1019690
21:00+7ssw1012760 0.0 1019648
5 march, fri
fri500:00+7ssw1113820 0.0 1018604
03:00+8ssw1013800 0.0 1017612
06:00+8ssw912830 0.0 1015528
09:00+8ssw1012833 0.0 1014510
12:00+9ssw10148222 0.0 1013497
15:00+9ssw9138514 0.0 1012392
18:00+9ssw912850 0.0 1011348
21:00+9sw7108841 0.0 1012227
6 march, sat
sat600:00+9sw688795 0.0 1013158
03:00+9wnw577960 0.0 1014102
06:00+6nne8118874 0.0 1015413
09:00+6nne798786 0.0 1017476
12:00+3n101192100 0.1 1018501
15:00+5n81065100 0.8 10191047
18:00+5n8953100 0.0 10211328
21:00+5n8951100 0.0 10241550
7 march, sun
sun700:00+3n995722 0.0 10271395
03:00+2n564311 0.0 10281525
06:00+2nnw554610 0.0 10281423
09:00+2nnw445042 0.0 10291465
12:00+3w4449100 0.0 10291460
15:00+3w555263 0.0 10261211
18:00+2w55490 0.0 10251165
21:00+3wsw45490 0.0 1024823